Location: G�yn�k
(36.6721°N, 30.5542°E)
Time: 13:53:43
(UTC+00:00)

Cosmos 864 Rocket - Pass Details

Date: 07 June 2020
Orbit: 954 x 990 km, 82.9° (Epoch: 13 July)

Event Time Altitude Azimuth Distance (km) Brightness Sun altitude
Exits shadow 01:00:28 17° 187° (S) 2,189 5.9 -16.4°
Maximum altitude 01:05:17 85° 275° (W) 963 4.4 -15.8°
Drops below altitude 10° 01:11:27 10° 5° (N) 2,695 7.6 -14.9°
Sets 01:13:58 0° 6° (N) 3,648 8.3 -14.5°
